| time (UTC) | temp F | wind direction | speed MPH | gust MPH | rain 1hr in | rain 24hr in | rain mn in | humidity % | barometer mb |
| 20260509152013 | 75 | 331 | 3.0 | 10.0 | 0.00 | 0.00 | 0.00 | 81 | 1010.3 |
| 20260509151534 | 75 | 351 | 5.0 | 10.0 | 0.00 | 0.00 | 0.00 | 81 | 1010.4 |
| 20260509151012 | 74 | 0 | 0.0 | 6.0 | 0.00 | 0.00 | 0.00 | 82 | 1010.3 |
| 20260509150511 | 74 | 6 | 1.0 | 6.0 | 0.00 | 0.00 | 0.00 | 82 | 1010.3 |
| 20260509150032 | 74 | 12 | 1.0 | 6.0 | 0.00 | 0.00 | 0.00 | 83 | 1010.3 |
| 20260509145513 | 74 | 356 | 1.0 | 8.0 | 0.00 | 0.00 | 0.00 | 83 | 1010.2 |
| 20260509145014 | 74 | 20 | 1.0 | 8.0 | 0.00 | 0.00 | 0.00 | 84 | 1010.2 |
| 20260509144533 | 73 | 29 | 2.0 | 5.0 | 0.00 | 0.00 | 0.00 | 84 | 1010.2 |
| 20260509144012 | 73 | 349 | 1.0 | 9.0 | 0.00 | 0.00 | 0.00 | 85 | 1010.4 |
| 20260509143511 | 73 | 12 | 3.0 | 9.0 | 0.00 | 0.00 | 0.00 | 85 | 1010.4 |
| 20260509143030 | 72 | 25 | 2.0 | 9.0 | 0.00 | 0.00 | 0.00 | 86 | 1010.4 |
| 20260509142516 | 72 | 2 | 2.0 | 8.0 | 0.00 | 0.00 | 0.00 | 86 | 1010.4 |
| 20260509142012 | 72 | 0 | 0.0 | 8.0 | 0.00 | 0.00 | 0.00 | 87 | 1010.3 |
| 20260509141531 | 72 | 354 | 1.0 | 8.0 | 0.00 | 0.00 | 0.00 | 87 | 1010.3 |
| 20260509141012 | 72 | 356 | 2.0 | 8.0 | 0.00 | 0.00 | 0.00 | 87 | 1010.2 |
| 20260509140514 | 72 | 290 | 2.0 | 8.0 | 0.00 | 0.00 | 0.00 | 88 | 1010.2 |
| 20260509140029 | 71 | 6 | 0.0 | 8.0 | 0.00 | 0.00 | 0.00 | 89 | 1010.1 |
| 20260509135512 | 71 | 340 | 1.0 | 8.0 | 0.00 | 0.00 | 0.00 | 89 | 1010.2 |
| 20260509135014 | 71 | 293 | 2.0 | 8.0 | 0.00 | 0.00 | 0.00 | 89 | 1010.1 |
| 20260509134531 | 71 | 0 | 0.0 | 11.0 | 0.00 | 0.00 | 0.00 | 89 | 1010.1 |
| 20260509134011 | 71 | 350 | 3.0 | 11.0 | 0.00 | 0.00 | 0.00 | 90 | 1010.1 |
| 20260509133512 | 70 | 329 | 2.0 | 11.0 | 0.00 | 0.00 | 0.00 | 90 | 1010.0 |
| 20260509133030 | 70 | 6 | 3.0 | 11.0 | 0.00 | 0.00 | 0.00 | 90 | 1009.9 |
| 20260509132515 | 70 | 353 | 2.0 | 10.0 | 0.00 | 0.00 | 0.00 | 91 | 1009.8 |
| 20260509132017 | 70 | 2 | 2.0 | 10.0 | 0.00 | 0.00 | 0.00 | 91 | 1009.8 |
| 20260509131533 | 70 | 283 | 2.0 | 5.0 | 0.00 | 0.00 | 0.00 | 91 | 1009.9 |
| 20260509131010 | 70 | 355 | 0.0 | 8.0 | 0.00 | 0.00 | 0.00 | 92 | 1009.8 |
| 20260509130514 | 70 | 355 | 2.0 | 8.0 | 0.00 | 0.00 | 0.00 | 92 | 1009.8 |
| 20260509130038 | 70 | 359 | 2.0 | 7.0 | 0.00 | 0.00 | 0.00 | 92 | 1009.8 |
| 20260509125512 | 70 | 350 | 2.0 | 7.0 | 0.00 | 0.00 | 0.00 | 92 | 1009.9 |
| 20260509125014 | 70 | 0 | 0.0 | 4.0 | 0.00 | 0.00 | 0.00 | 92 | 1009.8 |
| 20260509124538 | 70 | 0 | 1.0 | 4.0 | 0.00 | 0.00 | 0.00 | 92 | 1009.9 |
| 20260509124010 | 69 | 0 | 0.0 | 5.0 | 0.00 | 0.00 | 0.00 | 92 | 1009.8 |
| 20260509123513 | 69 | 0 | 1.0 | 5.0 | 0.00 | 0.00 | 0.00 | 92 | 1009.8 |
| 20260509123034 | 69 | 2 | 0.0 | 5.0 | 0.00 | 0.00 | 0.00 | 92 | 1009.9 |
| 20260509122514 | 69 | 0 | 0.0 | 3.0 | 0.00 | 0.00 | 0.00 | 92 | 1009.9 |
| 20260509122013 | 69 | 0 | 1.0 | 3.0 | 0.00 | 0.00 | 0.00 | 92 | 1009.8 |
| 20260509121534 | 69 | 0 | 0.0 | 2.0 | 0.00 | 0.00 | 0.00 | 91 | 1009.9 |
| 20260509121014 | 69 | 0 | 0.0 | 0.0 | 0.00 | 0.00 | 0.00 | 91 | 1009.9 |
| 20260509120513 | 69 | 0 | 0.0 | 0.0 | 0.00 | 0.00 | 0.00 | 91 | 1009.8 |
| 20260509120032 | 69 | 0 | 0.0 | 0.0 | 0.00 | 0.00 | 0.00 | 91 | 1009.8 |
| 20260509115514 | 69 | 0 | 0.0 | 0.0 | 0.00 | 0.00 | 0.00 | 91 | 1009.7 |
| 20260509115014 | 69 | 0 | 0.0 | 0.0 | 0.00 | 0.00 | 0.00 | 91 | 1009.5 |
| 20260509114532 | 70 | 0 | 0.0 | 0.0 | 0.00 | 0.00 | 0.00 | 91 | 1009.6 |
| 20260509114013 | 70 | 0 | 0.0 | 0.0 | 0.00 | 0.00 | 0.00 | 91 | 1009.3 |
| 20260509113514 | 70 | 0 | 0.0 | 0.0 | 0.00 | 0.00 | 0.00 | 91 | 1009.2 |
| 20260509113036 | 70 | 0 | 0.0 | 0.0 | 0.00 | 0.00 | 0.00 | 91 | 1009.1 |
| 20260509112512 | 70 | 0 | 0.0 | 1.0 | 0.00 | 0.00 | 0.00 | 91 | 1008.9 |
| 20260509112011 | 70 | 0 | 0.0 | 3.0 | 0.00 | 0.00 | 0.00 | 91 | 1008.9 |
| 20260509111531 | 70 | 0 | 0.0 | 3.0 | 0.00 | 0.00 | 0.00 | 91 | 1008.8 |
| 20260509111016 | 70 | 0 | 0.0 | 4.0 | 0.00 | 0.00 | 0.00 | 91 | 1008.6 |
| 20260509110514 | 70 | 0 | 1.0 | 4.0 | 0.00 | 0.00 | 0.00 | 91 | 1008.5 |
| 20260509110031 | 70 | 0 | 0.0 | 2.0 | 0.00 | 0.00 | 0.00 | 91 | 1008.6 |
| 20260509105513 | 70 | 208 | 0.0 | 3.0 | 0.00 | 0.00 | 0.00 | 91 | 1008.5 |
| 20260509105014 | 70 | 0 | 0.0 | 3.0 | 0.00 | 0.00 | 0.00 | 91 | 1008.6 |
| 20260509104530 | 70 | 208 | 0.0 | 0.0 | 0.00 | 0.00 | 0.00 | 91 | 1008.6 |
| 20260509104019 | 70 | 0 | 0.0 | 0.0 | 0.00 | 0.00 | 0.00 | 91 | 1008.6 |
| 20260509103512 | 70 | 0 | 0.0 | 0.0 | 0.00 | 0.00 | 0.00 | 91 | 1008.5 |
| 20260509103036 | 70 | 0 | 0.0 | 0.0 | 0.00 | 0.00 | 0.00 | 91 | 1008.5 |
| 20260509102513 | 70 | 0 | 0.0 | 0.0 | 0.00 | 0.00 | 0.00 | 91 | 1008.5 |
| 20260509102017 | 70 | 0 | 0.0 | 0.0 | 0.00 | 0.00 | 0.00 | 91 | 1008.5 |
| 20260509101547 | 70 | 0 | 0.0 | 0.0 | 0.00 | 0.00 | 0.00 | 91 | 1008.5 |
| 20260509101012 | 70 | 0 | 0.0 | 0.0 | 0.00 | 0.00 | 0.00 | 91 | 1008.6 |
| 20260509100516 | 70 | 0 | 0.0 | 0.0 | 0.00 | 0.00 | 0.00 | 91 | 1008.5 |
| 20260509100034 | 70 | 0 | 0.0 | 0.0 | 0.00 | 0.00 | 0.00 | 91 | 1008.5 |
| 20260509095514 | 70 | 0 | 0.0 | 0.0 | 0.00 | 0.00 | 0.00 | 91 | 1008.4 |
| 20260509095016 | 70 | 0 | 0.0 | 0.0 | 0.00 | 0.00 | 0.00 | 91 | 1008.3 |
| 20260509094538 | 70 | 0 | 0.0 | 0.0 | 0.00 | 0.00 | 0.00 | 91 | 1008.5 |
| 20260509094013 | 70 | 0 | 0.0 | 1.0 | 0.00 | 0.00 | 0.00 | 91 | 1008.4 |
| 20260509093514 | 70 | 0 | 0.0 | 1.0 | 0.00 | 0.00 | 0.00 | 91 | 1008.4 |
| 20260509093032 | 70 | 0 | 0.0 | 0.0 | 0.00 | 0.00 | 0.00 | 91 | 1008.2 |
| 20260509092514 | 70 | 0 | 0.0 | 0.0 | 0.00 | 0.00 | 0.00 | 90 | 1008.2 |
| 20260509092012 | 70 | 0 | 0.0 | 0.0 | 0.00 | 0.00 | 0.00 | 90 | 1007.8 |
| 20260509091530 | 70 | 0 | 0.0 | 5.0 | 0.00 | 0.00 | 0.00 | 90 | 1007.7 |
| 20260509091015 | 70 | 0 | 0.0 | 5.0 | 0.00 | 0.00 | 0.00 | 90 | 1007.3 |
| 20260509090517 | 70 | 0 | 2.0 | 5.0 | 0.00 | 0.00 | 0.00 | 90 | 1006.8 |
| 20260509090039 | 70 | 0 | 0.0 | 13.0 | 0.00 | 0.00 | 0.00 | 90 | 1006.5 |
| 20260509085512 | 70 | 229 | 3.0 | 13.0 | 0.00 | 0.00 | 0.00 | 90 | 1006.2 |
| 20260509085014 | 70 | 201 | 3.0 | 12.0 | 0.00 | 0.00 | 0.00 | 90 | 1006.2 |
| 20260509084532 | 70 | 171 | 4.0 | 11.0 | 0.00 | 0.00 | 0.00 | 90 | 1006.4 |
| 20260509084013 | 70 | 188 | 4.0 | 11.0 | 0.00 | 0.00 | 0.00 | 89 | 1006.7 |
| 20260509083511 | 70 | 0 | 3.0 | 11.0 | 0.00 | 0.00 | 0.00 | 89 | 1007.0 |
| 20260509083046 | 70 | 179 | 3.0 | 9.0 | 0.00 | 0.00 | 0.00 | 89 | 1007.4 |
| 20260509082516 | 71 | 173 | 3.0 | 9.0 | 0.00 | 0.00 | 0.00 | 89 | 1007.8 |
| 20260509082014 | 71 | 230 | 3.0 | 9.0 | 0.00 | 0.00 | 0.00 | 89 | 1007.7 |
| 20260509081532 | 71 | 214 | 2.0 | 9.0 | 0.00 | 0.00 | 0.00 | 89 | 1008.1 |
| 20260509081014 | 71 | 233 | 2.0 | 9.0 | 0.00 | 0.00 | 0.00 | 88 | 1008.7 |
| 20260509080516 | 71 | 206 | 0.0 | 5.0 | 0.00 | 0.00 | 0.00 | 88 | 1008.9 |
| 20260509080034 | 71 | 0 | 1.0 | 5.0 | 0.00 | 0.00 | 0.00 | 88 | 1008.9 |
| 20260509075514 | 71 | 189 | 0.0 | 5.0 | 0.00 | 0.00 | 0.00 | 88 | 1009.0 |
| 20260509075014 | 71 | 190 | 0.0 | 4.0 | 0.00 | 0.00 | 0.00 | 88 | 1009.2 |
| 20260509074536 | 71 | 190 | 1.0 | 8.0 | 0.00 | 0.00 | 0.00 | 88 | 1009.2 |
| 20260509074016 | 71 | 208 | 2.0 | 8.0 | 0.00 | 0.00 | 0.00 | 88 | 1009.4 |
| 20260509073513 | 71 | 210 | 1.0 | 5.0 | 0.00 | 0.00 | 0.00 | 88 | 1009.6 |
| 20260509073035 | 71 | 219 | 0.0 | 6.0 | 0.00 | 0.00 | 0.00 | 88 | 1009.6 |
| 20260509072515 | 71 | 210 | 1.0 | 6.0 | 0.00 | 0.00 | 0.00 | 88 | 1009.8 |
| 20260509072015 | 71 | 0 | 1.0 | 5.0 | 0.00 | 0.00 | 0.00 | 88 | 1010.0 |
| 20260509071541 | 71 | 0 | 0.0 | 4.0 | 0.00 | 0.00 | 0.00 | 88 | 1010.1 |
| 20260509071014 | 71 | 0 | 0.0 | 0.0 | 0.00 | 0.00 | 0.00 | 88 | 1010.1 |
| 20260509070516 | 71 | 0 | 0.0 | 0.0 | 0.00 | 0.00 | 0.00 | 88 | 1010.2 |
| 20260509070033 | 71 | 0 | 0.0 | 0.0 | 0.00 | 0.00 | 0.00 | 88 | 1010.1 |
| 20260509065515 | 71 | 0 | 0.0 | 0.0 | 0.00 | 0.00 | 0.00 | 87 | 1010.2 |
| 20260509065012 | 71 | 0 | 0.0 | 1.0 | 0.00 | 0.00 | 0.00 | 87 | 1010.1 |
| 20260509064532 | 71 | 0 | 0.0 | 2.0 | 0.00 | 0.00 | 0.00 | 87 | 1009.9 |
| 20260509064013 | 71 | 0 | 0.0 | 3.0 | 0.00 | 0.00 | 0.00 | 87 | 1009.9 |
| 20260509063516 | 71 | 0 | 0.0 | 3.0 | 0.00 | 0.00 | 0.00 | 87 | 1009.6 |
| 20260509063034 | 71 | 0 | 0.0 | 4.0 | 0.00 | 0.00 | 0.00 | 86 | 1009.8 |
| 20260509062514 | 71 | 200 | 0.0 | 4.0 | 0.00 | 0.00 | 0.00 | 86 | 1009.9 |
| 20260509062016 | 71 | 0 | 0.0 | 2.0 | 0.00 | 0.00 | 0.00 | 86 | 1010.0 |
| 20260509061535 | 71 | 0 | 0.0 | 3.0 | 0.00 | 0.00 | 0.00 | 85 | 1010.0 |
| 20260509061019 | 71 | 0 | 0.0 | 3.0 | 0.00 | 0.00 | 0.00 | 85 | 1009.7 |
| 20260509060515 | 71 | 0 | 0.0 | 2.0 | 0.00 | 0.00 | 0.00 | 84 | 1010.0 |
| 20260509060040 | 71 | 0 | 0.0 | 0.0 | 0.00 | 0.00 | 0.00 | 84 | 1010.1 |
| 20260509055516 | 71 | 0 | 0.0 | 0.0 | 0.00 | 0.00 | 0.00 | 84 | 1010.5 |
| 20260509055013 | 71 | 0 | 0.0 | 0.0 | 0.00 | 0.00 | 0.00 | 84 | 1010.4 |
| 20260509054533 | 72 | 0 | 0.0 | 0.0 | 0.00 | 0.00 | 0.00 | 84 | 1010.7 |
| 20260509054012 | 72 | 0 | 0.0 | 2.0 | 0.00 | 0.00 | 0.00 | 84 | 1010.5 |
| 20260509053511 | 72 | 0 | 0.0 | 2.0 | 0.00 | 0.00 | 0.00 | 84 | 1010.3 |
| 20260509053046 | 72 | 0 | 0.0 | 0.0 | 0.00 | 0.00 | 0.00 | 84 | 1010.7 |
| 20260509052511 | 72 | 0 | 0.0 | 1.0 | 0.00 | 0.00 | 0.00 | 84 | 1011.1 |
| 20260509052012 | 72 | 0 | 0.0 | 1.0 | 0.00 | 0.00 | 0.00 | 83 | 1011.4 |
| 20260509051535 | 72 | 0 | 0.0 | 1.0 | 0.00 | 0.00 | 0.00 | 83 | 1011.2 |
| 20260509051011 | 72 | 0 | 0.0 | 1.0 | 0.00 | 0.00 | 0.00 | 83 | 1010.6 |
| 20260509050513 | 72 | 0 | 0.0 | 5.0 | 0.00 | 0.00 | 0.00 | 83 | 1010.1 |
| 20260509050030 | 72 | 0 | 0.0 | 5.0 | 0.00 | 0.00 | 0.00 | 83 | 1009.8 |
| 20260509045519 | 72 | 204 | 0.0 | 4.0 | 0.00 | 0.00 | 0.00 | 82 | 1009.8 |
| 20260509045012 | 72 | 0 | 0.0 | 6.0 | 0.00 | 0.00 | 0.00 | 82 | 1009.4 |
| 20260509044530 | 72 | 222 | 1.0 | 6.0 | 0.00 | 0.00 | 0.00 | 82 | 1009.3 |
| 20260509044014 | 72 | 207 | 1.0 | 5.0 | 0.00 | 0.00 | 0.00 | 81 | 1009.3 |
| 20260509043513 | 72 | 0 | 0.0 | 7.0 | 0.00 | 0.00 | 0.00 | 81 | 1009.8 |
| 20260509043032 | 72 | 0 | 1.0 | 7.0 | 0.00 | 0.00 | 0.00 | 81 | 1009.6 |
| 20260509042512 | 72 | 0 | 0.0 | 6.0 | 0.00 | 0.00 | 0.00 | 81 | 1009.6 |
| 20260509042018 | 72 | 225 | 1.0 | 6.0 | 0.00 | 0.00 | 0.00 | 81 | 1009.6 |
| 20260509041533 | 72 | 171 | 0.0 | 4.0 | 0.00 | 0.00 | 0.00 | 81 | 1009.5 |
| 20260509041015 | 73 | 131 | 0.0 | 4.0 | 0.00 | 0.00 | 0.00 | 81 | 1009.8 |
| 20260509040514 | 73 | 0 | 0.0 | 4.0 | 0.00 | 0.00 | 0.00 | 81 | 1009.9 |
| 20260509040032 | 73 | 0 | 0.0 | 3.0 | 0.00 | 0.00 | 0.00 | 81 | 1009.7 |
| 20260509035511 | 73 | 0 | 0.0 | 0.0 | 0.00 | 0.00 | 0.00 | 81 | 1010.1 |
| 20260509035012 | 73 | 0 | 0.0 | 1.0 | 0.00 | 0.00 | 0.00 | 81 | 1010.4 |
| 20260509034537 | 73 | 0 | 0.0 | 1.0 | 0.00 | 0.00 | 0.00 | 81 | 1010.3 |
| 20260509034013 | 72 | 0 | 0.0 | 0.0 | 0.00 | 0.00 | 0.00 | 81 | 1010.2 |
| 20260509033512 | 72 | 0 | 0.0 | 0.0 | 0.00 | 0.00 | 0.00 | 81 | 1010.1 |
| 20260509033034 | 72 | 0 | 0.0 | 2.0 | 0.00 | 0.00 | 0.00 | 81 | 1009.9 |
| 20260509032514 | 72 | 0 | 0.0 | 2.0 | 0.00 | 0.00 | 0.00 | 81 | 1009.8 |
| 20260509032014 | 72 | 0 | 0.0 | 1.0 | 0.00 | 0.00 | 0.00 | 81 | 1009.8 |
| 20260509031549 | 72 | 0 | 0.0 | 1.0 | 0.00 | 0.00 | 0.00 | 81 | 1009.9 |
| 20260509031012 | 72 | 0 | 0.0 | 0.0 | 0.00 | 0.00 | 0.00 | 81 | 1009.9 |
| 20260509030515 | 72 | 0 | 0.0 | 3.0 | 0.00 | 0.00 | 0.00 | 81 | 1009.9 |
| 20260509030054 | 72 | 0 | 0.0 | 8.0 | 0.00 | 0.00 | 0.00 | 81 | 1009.6 |
| 20260509025512 | 72 | 0 | 1.0 | 8.0 | 0.00 | 0.00 | 0.00 | 80 | 1009.4 |
| 20260509025014 | 72 | 0 | 0.0 | 5.0 | 0.00 | 0.00 | 0.00 | 81 | 1009.3 |
| 20260509024538 | 72 | 0 | 1.0 | 7.0 | 0.00 | 0.00 | 0.00 | 80 | 1009.3 |
| 20260509024014 | 72 | 214 | 3.0 | 7.0 | 0.00 | 0.00 | 0.00 | 80 | 1009.1 |
| 20260509023515 | 72 | 200 | 3.0 | 7.0 | 0.00 | 0.00 | 0.00 | 80 | 1008.9 |
| 20260509023036 | 72 | 209 | 1.0 | 5.0 | 0.00 | 0.00 | 0.00 | 80 | 1008.9 |
| 20260509022514 | 72 | 0 | 1.0 | 6.0 | 0.00 | 0.00 | 0.00 | 80 | 1008.7 |
| 20260509022017 | 73 | 196 | 1.0 | 7.0 | 0.00 | 0.00 | 0.00 | 80 | 1008.7 |
| 20260509021538 | 73 | 0 | 2.0 | 7.0 | 0.00 | 0.00 | 0.00 | 80 | 1008.7 |
| 20260509021014 | 73 | 207 | 1.0 | 5.0 | 0.00 | 0.00 | 0.00 | 80 | 1008.7 |
| 20260509020515 | 73 | 0 | 0.0 | 5.0 | 0.00 | 0.00 | 0.00 | 79 | 1008.7 |
| 20260509020032 | 73 | 174 | 2.0 | 6.0 | 0.00 | 0.00 | 0.00 | 79 | 1008.7 |
| 20260509015514 | 73 | 135 | 1.0 | 6.0 | 0.00 | 0.00 | 0.00 | 79 | 1008.7 |
| 20260509015015 | 73 | 209 | 1.0 | 5.0 | 0.00 | 0.00 | 0.00 | 79 | 1008.6 |
| 20260509014534 | 73 | 0 | 2.0 | 5.0 | 0.00 | 0.00 | 0.00 | 78 | 1008.7 |
| 20260509014018 | 74 | 0 | 1.0 | 4.0 | 0.00 | 0.00 | 0.00 | 78 | 1008.7 |
| 20260509013513 | 74 | 0 | 0.0 | 6.0 | 0.00 | 0.00 | 0.00 | 77 | 1008.7 |
| 20260509013030 | 73 | 0 | 1.0 | 6.0 | 0.00 | 0.00 | 0.00 | 76 | 1008.6 |
| 20260509012516 | 74 | 0 | 0.0 | 4.0 | 0.00 | 0.00 | 0.00 | 76 | 1008.5 |
| 20260509012019 | 74 | 177 | 0.0 | 5.0 | 0.00 | 0.00 | 0.00 | 76 | 1008.5 |
| 20260509011535 | 74 | 177 | 2.0 | 6.0 | 0.00 | 0.00 | 0.00 | 75 | 1008.5 |
| 20260509011014 | 74 | 206 | 1.0 | 6.0 | 0.00 | 0.00 | 0.00 | 75 | 1008.4 |
| 20260509010515 | 74 | 205 | 1.0 | 6.0 | 0.00 | 0.00 | 0.00 | 75 | 1008.2 |
| 20260509010032 | 74 | 201 | 0.0 | 6.0 | 0.00 | 0.00 | 0.00 | 75 | 1008.2 |
| 20260509005514 | 74 | 0 | 0.0 | 6.0 | 0.00 | 0.00 | 0.00 | 74 | 1008.1 |
| 20260509005014 | 74 | 0 | 2.0 | 8.0 | 0.00 | 0.00 | 0.00 | 74 | 1008.0 |
| 20260509004548 | 74 | 160 | 3.0 | 8.0 | 0.00 | 0.00 | 0.00 | 74 | 1008.1 |
| 20260509004018 | 74 | 0 | 1.0 | 7.0 | 0.00 | 0.00 | 0.00 | 73 | 1008.0 |
| 20260509003515 | 75 | 172 | 2.0 | 9.0 | 0.00 | 0.00 | 0.00 | 73 | 1008.0 |
| 20260509003036 | 75 | 188 | 1.0 | 9.0 | 0.00 | 0.00 | 0.00 | 73 | 1007.8 |
| 20260509002514 | 75 | 181 | 2.0 | 7.0 | 0.00 | 0.00 | 0.00 | 73 | 1007.9 |
| 20260509002016 | 75 | 0 | 1.0 | 7.0 | 0.00 | 0.00 | 0.00 | 72 | 1007.9 |
| 20260509001532 | 75 | 226 | 2.0 | 9.0 | 0.00 | 0.00 | 0.00 | 72 | 1007.8 |
| 20260509001015 | 75 | 146 | 3.0 | 9.0 | 0.00 | 0.00 | 0.00 | 72 | 1007.9 |
| 20260509000515 | 75 | 218 | 2.0 | 7.0 | 0.00 | 0.00 | 0.00 | 72 | 1008.0 |
| 20260509000034 | 75 | 183 | 0.0 | 8.0 | 0.00 | 0.00 | 0.00 | 71 | 1008.1 |
| 20260508235518 | 75 | 173 | 3.0 | 8.0 | 0.00 | 0.00 | 0.00 | 71 | 1008.1 |
| 20260508235017 | 75 | 185 | 2.0 | 8.0 | 0.00 | 0.00 | 0.00 | 71 | 1008.3 |
| 20260508234533 | 76 | 0 | 0.0 | 7.0 | 0.00 | 0.00 | 0.00 | 70 | 1008.2 |
| 20260508234014 | 76 | 172 | 3.0 | 7.0 | 0.00 | 0.00 | 0.00 | 70 | 1008.3 |
| 20260508233518 | 76 | 0 | 1.0 | 6.0 | 0.00 | 0.00 | 0.00 | 70 | 1008.3 |
| 20260508233032 | 76 | 201 | 1.0 | 6.0 | 0.00 | 0.00 | 0.00 | 71 | 1008.4 |
| 20260508232515 | 76 | 0 | 2.0 | 6.0 | 0.00 | 0.00 | 0.00 | 70 | 1008.3 |
| 20260508232016 | 75 | 185 | 3.0 | 6.0 | 0.00 | 0.00 | 0.00 | 70 | 1008.4 |
| 20260508231534 | 75 | 218 | 3.0 | 11.0 | 0.00 | 0.00 | 0.00 | 69 | 1008.5 |
| 20260508231018 | 76 | 193 | 4.0 | 11.0 | 0.00 | 0.00 | 0.00 | 69 | 1008.5 |
| 20260508230517 | 76 | 171 | 3.0 | 9.0 | 0.00 | 0.00 | 0.00 | 69 | 1008.5 |
| 20260508230033 | 76 | 168 | 2.0 | 9.0 | 0.00 | 0.00 | 0.00 | 69 | 1008.5 |
| 20260508225516 | 76 | 208 | 4.0 | 8.0 | 0.00 | 0.00 | 0.00 | 69 | 1008.4 |
| 20260508225021 | 76 | 130 | 2.0 | 7.0 | 0.00 | 0.00 | 0.00 | 69 | 1008.6 |
| 20260508224543 | 76 | 0 | 2.0 | 9.0 | 0.00 | 0.00 | 0.00 | 68 | 1008.6 |
| 20260508224017 | 76 | 199 | 2.0 | 9.0 | 0.00 | 0.00 | 0.00 | 68 | 1008.6 |
| 20260508223516 | 76 | 210 | 4.0 | 9.0 | 0.00 | 0.00 | 0.00 | 69 | 1008.5 |
| 20260508223046 | 76 | 181 | 3.0 | 9.0 | 0.00 | 0.00 | 0.00 | 69 | 1008.5 |
| 20260508222513 | 76 | 231 | 2.0 | 9.0 | 0.00 | 0.00 | 0.00 | 69 | 1008.5 |
| 20260508222017 | 76 | 159 | 3.0 | 11.0 | 0.00 | 0.00 | 0.00 | 69 | 1008.3 |
| 20260508221532 | 76 | 217 | 4.0 | 11.0 | 0.00 | 0.00 | 0.00 | 68 | 1008.3 |
| 20260508221016 | 76 | 199 | 4.0 | 11.0 | 0.00 | 0.00 | 0.00 | 68 | 1008.3 |
| 20260508220515 | 77 | 183 | 3.0 | 10.0 | 0.00 | 0.00 | 0.00 | 68 | 1008.3 |
| 20260508220039 | 76 | 209 | 2.0 | 10.0 | 0.00 | 0.00 | 0.00 | 69 | 1008.2 |
| 20260508215517 | 76 | 171 | 3.0 | 10.0 | 0.00 | 0.00 | 0.00 | 68 | 1008.2 |
| 20260508215015 | 76 | 210 | 2.0 | 8.0 | 0.00 | 0.00 | 0.00 | 68 | 1008.4 |
| 20260508214531 | 76 | 191 | 2.0 | 9.0 | 0.00 | 0.00 | 0.00 | 68 | 1008.3 |
| 20260508214016 | 76 | 243 | 2.0 | 9.0 | 0.00 | 0.00 | 0.00 | 67 | 1008.5 |
| 20260508213516 | 77 | 216 | 1.0 | 11.0 | 0.00 | 0.00 | 0.00 | 67 | 1008.5 |
| 20260508213033 | 78 | 144 | 2.0 | 11.0 | 0.00 | 0.00 | 0.00 | 64 | 1008.5 |
| 20260508212517 | 78 | 160 | 4.0 | 10.0 | 0.00 | 0.00 | 0.00 | 64 | 1008.4 |
| 20260508212014 | 79 | 173 | 2.0 | 10.0 | 0.00 | 0.00 | 0.00 | 66 | 1008.5 |
| 20260508211535 | 78 | 213 | 4.0 | 10.0 | 0.00 | 0.00 | 0.00 | 64 | 1008.6 |
| 20260508211016 | 78 | 114 | 3.0 | 8.0 | 0.00 | 0.00 | 0.00 | 67 | 1008.7 |
| 20260508210516 | 76 | 179 | 4.0 | 8.0 | 0.00 | 0.00 | 0.00 | 68 | 1008.9 |
| 20260508210033 | 75 | 202 | 1.0 | 6.0 | 0.00 | 0.00 | 0.00 | 69 | 1009.1 |
| 20260508205517 | 75 | 215 | 0.0 | 5.0 | 0.00 | 0.00 | 0.00 | 69 | 1009.5 |
| 20260508205017 | 75 | 217 | 1.0 | 8.0 | 0.00 | 0.00 | 0.00 | 68 | 1009.8 |
| 20260508204534 | 75 | 198 | 2.0 | 8.0 | 0.00 | 0.00 | 0.00 | 69 | 1010.0 |
| 20260508204013 | 75 | 169 | 2.0 | 5.0 | 0.00 | 0.00 | 0.00 | 68 | 1010.1 |
| 20260508203512 | 75 | 196 | 1.0 | 6.0 | 0.00 | 0.00 | 0.00 | 68 | 1010.4 |
| 20260508203030 | 75 | 216 | 2.0 | 8.0 | 0.00 | 0.00 | 0.00 | 68 | 1010.5 |
| 20260508202514 | 75 | 177 | 2.0 | 10.0 | 0.00 | 0.00 | 0.00 | 67 | 1010.6 |
| 20260508202021 | 76 | 183 | 3.0 | 10.0 | 0.00 | 0.00 | 0.00 | 67 | 1010.5 |
| 20260508201534 | 76 | 239 | 2.0 | 8.0 | 0.00 | 0.00 | 0.00 | 67 | 1010.6 |
| 20260508201016 | 76 | 0 | 0.0 | 6.0 | 0.00 | 0.00 | 0.00 | 66 | 1010.4 |
| 20260508200515 | 76 | 0 | 1.0 | 8.0 | 0.00 | 0.00 | 0.00 | 66 | 1010.4 |
| 20260508200033 | 76 | 198 | 4.0 | 8.0 | 0.00 | 0.00 | 0.00 | 66 | 1010.4 |
| 20260508195516 | 76 | 212 | 2.0 | 7.0 | 0.00 | 0.00 | 0.00 | 66 | 1010.3 |
| 20260508195014 | 77 | 217 | 3.0 | 10.0 | 0.00 | 0.00 | 0.00 | 66 | 1010.5 |
| 20260508194538 | 76 | 173 | 3.0 | 10.0 | 0.00 | 0.00 | 0.00 | 66 | 1010.4 |
| 20260508194013 | 76 | 207 | 3.0 | 8.0 | 0.00 | 0.00 | 0.00 | 66 | 1010.5 |
| 20260508193512 | 76 | 200 | 4.0 | 8.0 | 0.00 | 0.00 | 0.00 | 66 | 1010.6 |
| 20260508193030 | 77 | 157 | 2.0 | 10.0 | 0.00 | 0.00 | 0.00 | 65 | 1010.7 |
| 20260508192514 | 77 | 213 | 4.0 | 10.0 | 0.00 | 0.00 | 0.00 | 64 | 1010.6 |
| 20260508192016 | 78 | 181 | 3.0 | 7.0 | 0.00 | 0.00 | 0.00 | 64 | 1010.7 |
| 20260508191537 | 78 | 219 | 2.0 | 12.0 | 0.00 | 0.00 | 0.00 | 64 | 1010.7 |
| 20260508191014 | 78 | 0 | 2.0 | 12.0 | 0.00 | 0.00 | 0.00 | 64 | 1010.6 |
| 20260508190511 | 77 | 209 | 3.0 | 9.0 | 0.00 | 0.00 | 0.00 | 64 | 1010.7 |
| 20260508190032 | 78 | 189 | 3.0 | 9.0 | 0.00 | 0.00 | 0.00 | 65 | 1010.7 |
| 20260508185513 | 77 | 209 | 4.0 | 8.0 | 0.00 | 0.00 | 0.00 | 64 | 1010.7 |
| 20260508185012 | 78 | 222 | 1.0 | 7.0 | 0.00 | 0.00 | 0.00 | 64 | 1010.9 |
| 20260508184532 | 78 | 182 | 1.0 | 6.0 | 0.00 | 0.00 | 0.00 | 64 | 1010.7 |
| 20260508184013 | 77 | 186 | 1.0 | 8.0 | 0.00 | 0.00 | 0.00 | 64 | 1010.8 |
| 20260508183519 | 77 | 172 | 3.0 | 8.0 | 0.00 | 0.00 | 0.00 | 63 | 1011.0 |
| 20260508183034 | 77 | 0 | 2.0 | 6.0 | 0.00 | 0.00 | 0.00 | 64 | 1010.8 |
| 20260508182515 | 77 | 197 | 1.0 | 6.0 | 0.00 | 0.00 | 0.00 | 63 | 1011.0 |
| 20260508182015 | 77 | 216 | 2.0 | 6.0 | 0.00 | 0.00 | 0.00 | 65 | 1011.2 |
| 20260508181533 | 77 | 210 | 3.0 | 6.0 | 0.00 | 0.00 | 0.00 | 63 | 1011.4 |
| 20260508181011 | 77 | 0 | 2.0 | 7.0 | 0.00 | 0.00 | 0.00 | 63 | 1011.3 |
| 20260508180512 | 77 | 263 | 2.0 | 7.0 | 0.00 | 0.00 | 0.00 | 62 | 1011.4 |
| 20260508180031 | 77 | 204 | 0.0 | 8.0 | 0.00 | 0.00 | 0.00 | 63 | 1011.4 |
| 20260508175514 | 77 | 179 | 3.0 | 8.0 | 0.00 | 0.00 | 0.00 | 62 | 1011.4 |
| 20260508175014 | 77 | 153 | 1.0 | 7.0 | 0.00 | 0.00 | 0.00 | 62 | 1011.4 |
| 20260508174533 | 76 | 182 | 3.0 | 7.0 | 0.00 | 0.00 | 0.00 | 63 | 1011.7 |
| 20260508174020 | 76 | 203 | 3.0 | 7.0 | 0.00 | 0.00 | 0.00 | 62 | 1011.8 |
| 20260508173511 | 76 | 210 | 4.0 | 7.0 | 0.00 | 0.00 | 0.00 | 63 | 1011.7 |
| 20260508173031 | 75 | 167 | 2.0 | 6.0 | 0.00 | 0.00 | 0.00 | 63 | 1011.7 |
| 20260508172516 | 75 | 0 | 2.0 | 6.0 | 0.00 | 0.00 | 0.00 | 64 | 1011.8 |
| 20260508172016 | 74 | 194 | 2.0 | 8.0 | 0.00 | 0.00 | 0.00 | 64 | 1011.9 |
| 20260508171532 | 74 | 201 | 2.0 | 8.0 | 0.00 | 0.00 | 0.00 | 64 | 1012.0 |
| 20260508171010 | 73 | 222 | 2.0 | 8.0 | 0.00 | 0.00 | 0.00 | 66 | 1012.2 |
| 20260508170513 | 73 | 193 | 3.0 | 8.0 | 0.00 | 0.00 | 0.00 | 67 | 1012.5 |
| 20260508170031 | 73 | 212 | 1.0 | 5.0 | 0.00 | 0.00 | 0.00 | 67 | 1012.6 |
| 20260508165513 | 72 | 229 | 1.0 | 8.0 | 0.00 | 0.00 | 0.00 | 67 | 1013.0 |
| 20260508165016 | 72 | 127 | 3.0 | 9.0 | 0.00 | 0.00 | 0.00 | 66 | 1013.0 |
| 20260508164530 | 72 | 227 | 4.0 | 9.0 | 0.00 | 0.00 | 0.00 | 66 | 1013.0 |
| 20260508164014 | 72 | 175 | 3.0 | 9.0 | 0.00 | 0.00 | 0.00 | 67 | 1013.1 |
| 20260508163513 | 72 | 178 | 4.0 | 8.0 | 0.00 | 0.00 | 0.00 | 67 | 1013.3 |
| 20260508163035 | 72 | 217 | 3.0 | 8.0 | 0.00 | 0.00 | 0.00 | 67 | 1013.4 |
| 20260508162514 | 71 | 173 | 2.0 | 7.0 | 0.00 | 0.00 | 0.00 | 67 | 1013.3 |
| 20260508162014 | 71 | 201 | 3.0 | 9.0 | 0.00 | 0.00 | 0.00 | 67 | 1013.4 |
| 20260508161532 | 71 | 220 | 3.0 | 10.0 | 0.00 | 0.00 | 0.00 | 68 | 1013.5 |
| 20260508161012 | 70 | 193 | 3.0 | 10.0 | 0.00 | 0.00 | 0.00 | 68 | 1013.5 |
| 20260508160515 | 70 | 203 | 0.0 | 6.0 | 0.00 | 0.00 | 0.00 | 70 | 1013.6 |
| 20260508160032 | 69 | 220 | 2.0 | 10.0 | 0.00 | 0.00 | 0.00 | 69 | 1013.6 |
| 20260508155516 | 69 | 226 | 3.0 | 10.0 | 0.00 | 0.00 | 0.00 | 69 | 1013.5 |
| 20260508155012 | 69 | 0 | 1.0 | 6.0 | 0.00 | 0.00 | 0.00 | 69 | 1013.7 |
| 20260508154531 | 69 | 181 | 1.0 | 7.0 | 0.00 | 0.00 | 0.00 | 69 | 1014.0 |
| 20260508154015 | 69 | 178 | 3.0 | 7.0 | 0.00 | 0.00 | 0.00 | 69 | 1013.8 |
| 20260508153515 | 69 | 202 | 3.0 | 7.0 | 0.00 | 0.00 | 0.00 | 69 | 1013.9 |
| 20260508153038 | 68 | 185 | 3.0 | 7.0 | 0.00 | 0.00 | 0.00 | 70 | 1013.8 |
| 20260508152516 | 68 | 169 | 2.0 | 6.0 | 0.00 | 0.00 | 0.00 | 69 | 1013.9 |